Regional Weather Roundup
Issued by NWS Albany, NY

Home | Current Version | Previous Version | Text Only | Print | Product List | Glossary On
Versions: 1 2 3 4 5 6 7 8 9 10 11 12 13 14 15 16 17 18 19 20 21 22 23 24 25 26 27 28
000
ASUS41 KALY 211210
RWRALY

NEW YORK STATE HOURLY WEATHER ROUNDUP
NATIONAL WEATHER SERVICE ALBANY NY
800 AM EDT SAT APR 21 2018

NOTE: "FAIR" INDICATES FEW OR NO CLOUDS BELOW 12,000 FEET WITH NO
SIGNIFICANT WEATHER AND/OR NO OBSTRUCTIONS TO VISIBILITY.

NYZ032-033-038>043-046>054-057>066-NYZ062>081-082-084-211300-
EAST


CITY           SKY/WX    TMP DP  RH WIND       PRES   REMARKS
ALBANY         FAIR      39  26  59 NW7       30.38R WCI  34
GLENS FALLS    FAIR      36  29  75 S3        30.36R
POUGHKEEPSIE   FAIR      36  29  75 CALM      30.39S
NEWBURGH       SUNNY     36  27  69 W7        30.40R WCI  30
MONTGOMERY     FAIR      40  25  55 CALM      30.38R
WHITE PLAINS   FAIR      39  25  57 NW12      30.38S WCI  32
ISLIP          FAIR      42  29  59 NW7       30.38S
NEW YORK CITY  FAIR      43  26  51 NW15      30.41R
CENTRAL PARK   FAIR      41  25  53 NW9G16    30.43S
$$

NYZ005>009-017-018-044>046-055-056-211300-
CENTRAL


CITY           SKY/WX    TMP DP  RH WIND       PRES   REMARKS
FULTON         FAIR      37  32  82 SW6       30.42R WCI  32
SYRACUSE       FAIR      35  28  75 W13       30.43R WCI  26
ROME           FAIR      31  28  89 W3        30.43R
ELMIRA         FAIR      32  29  88 SW6       30.44R WCI  26
BINGHAMTON     FAIR      31  24  75 W6        30.38R WCI  25
MONTICELLO     FAIR      32  24  72 NW8       30.38S WCI  25
$$

NYZ026>034-041>043-087-211300-
NORTH


CITY           SKY/WX    TMP DP  RH WIND       PRES   REMARKS
WATERTOWN      FAIR      34  32  92 CALM      30.41R
FORT DRUM      NOT AVBL
OGDENSBURG     FAIR      37  26  63 NW5       30.39R WCI  34
MASSENA        FAIR      37  27  67 W6        30.39R WCI  32
SARANAC LAKE   FAIR      29  25  85 SW6       30.30R WCI  23
PLATTSBURGH    FAIR      42  21  43 NW8       30.33R
$$

NYZ001>004-010>016-019>021-085-211300-
WEST


CITY           SKY/WX    TMP DP  RH WIND       PRES   REMARKS
NIAGARA FALLS  FAIR      35  29  78 SW7       30.48R WCI  29
BUFFALO        PTSUNNY   33  29  85 SW8       30.48R WCI  26
DUNKIRK        FAIR      32  28  85 SW5       30.50R WCI  27
JAMESTOWN      FAIR      32  28  85 SW3       30.46R
WELLSVILLE     FAIR      33  22  63 W5        30.43R WCI  29
ROCHESTER      FAIR      36  28  73 W9        30.46R WCI  29
PENN YAN       FAIR      36  22  56 SW7       30.43R WCI  30
$$

             KEY
       WCI = WIND CHILL INDEX
       VSB = VISIBILITY
       HX  = HEAT INDEX
$$




USA.gov is the U.S. government's official web portal to all federal, state and local government web resources and services.